Starlink 36429

operational
NORAD ID: 67356 Int'l Des: 2026-003 Owner: SPXS Country: US Constellation: starlink
LEOCIRCULAR

About Starlink 36429

Description loading...

Live Position

Loading 3D Globe...

Upcoming Passes

Altitude History

Altitude vs Time

uPlot chart will show altitude changes over time

Two-Line Element Set

1 67356U 26003Y 26047.85255456 .00023578 00000-0 86344-3 0 9990
2 67356 42.9954 345.0369 0001272 244.8409 115.2311 15.27585686 5636
Epoch: Feb 16, 2026 • Age: 4 hours

Current Status

Altitude 486.6 km
Velocity 7.62 km/s
Sub-Earth Point -19.48°S, 31.58°E
Launch Date Jan 9, 2026
Age 0.1 years
Type internet

Technical Details

Classification Payload
Mass 575.00 kg
Dry Mass 530.00 kg
Total Mass 575.00 kg
Length 0.30 m
Diameter 4.10 m
Span 29.00 m
Shape Box + pan
Manufacturer SPXS
Bus Type Starlink V2MO
Phase Status In Orbit
Owner/State SPXS/US

Large Constellations

Loading constellations...